[[{"header":{"parameterUnit":"m.s-1","parameterCategory":2,"la1":30.2991,"la2":30.254,"lo1":-89.0895,"lo2":-89.0444,"dy":0.0017,"dx":0.0017,"nx":28,"ny":28,"refTime":"2025-08-23T03:00:00:Z","depth":"0","parameterNumber":2,"parameterNumberName":"U-component_of_CURRENTS"},"data":[0,0,0,0,0,0,0,0,0,0,0,0,0,0,0,0,0,0,0,0,0,0,0,0,0,0,0,0,0,0,0,0,0,0,0,0,0,0,0,0,0,0,0,0,0,0,0,0,0,0,0,0,0,0,0,0,0,0,0.2966,0.2966,0,0.298,0.298,0.298,0.2976,0.2976,0.2976,0.2975,0.2974,0.2974,0.2974,0,0,0,0,0,0,0,0,0,0,0,0,0,0.299,0.2989,0.2965,0.2966,0.2966,0.298,0.298,0.298,0.2976,0.2976,0.2976,0.2975,0.2974,0.2974,0.2974,0,0,0,0,0,0,0,0,0,0,0,0,0,0.2988,0.2989,0.2965,0.2967,0.2967,0.298,0.298,0.298,0.2976,0.2976,0.2976,0.2975,0.2974,0.2974,0.2974,0.298,0,0,0.2974,0.2974,0,0,0,0,0,0,0,0,0.2988,0.2987,0.2966,0.2967,0.2967,0.2977,0.2988,0.2979,0.2976,0.2971,0.2975,0.2975,0.2974,0.2974,0.2976,0.298,0.298,0.2974,0.2975,0.2975,0.2975,0,0,0,0,0,0,0,0.2988,0.2987,0.297,0.2967,0.2967,0.2986,0.2984,0.2986,0.2973,0.2972,0.2972,0.2975,0.2974,0.2976,0.2976,0.298,0.2974,0.2975,0.2975,0.2975,0.3052,0.3054,0,0,0,0,0,0,0.2986,0.2986,0.2969,0.297,0.2979,0.2985,0.2984,0.2973,0.2973,0.2973,0.2976,0.2975,0.2976,0.2976,0.2976,0.3042,0.2975,0.2975,0.2975,0.305,0.3053,0.3055,0,0,0,0,0,0,0.2986,0.2984,0.2969,0.2981,0.298,0.2985,0.2973,0.2973,0.2978,0.2976,0.2976,0.298,0.2976,0.2976,0.2992,0.304,0.2975,0.2975,0.3048,0.3051,0.3054,0.3137,0,0,0,0,0,0,0.2987,0.2983,0.2979,0.298,0.2979,0.2988,0.2973,0.2974,0.2981,0.2981,0.298,0.298,0.2975,0.2992,0.2992,0.3039,0.2975,0.3045,0.3049,0.3053,0.3132,0.3142,0.3151,0,0,0,0,0,0.2987,0.2985,0.2978,0.2977,0.2971,0.2989,0.2991,0.2993,0.2982,0.2993,0.2994,0.298,0.3016,0.2993,0.2993,0.3041,0.3044,0.3048,0.3052,0.3127,0.314,0.3151,0,0,0,0,0,0,0.2997,0.2984,0.2977,0.2971,0.2984,0.2989,0.3,0.2996,0.3004,0.3004,0.2993,0.2994,0.3034,0.302,0.2995,0.3076,0.3032,0.3037,0.3089,0.3101,0.3111,0.3126,0.2975,0,0,0,0,0,0.2996,0.2989,0.2988,0.2988,0.2992,0.2995,0.3001,0.3005,0.3011,0.3014,0.3015,0.3025,0.3052,0.306,0.3076,0.3106,0.3131,0.3141,0.3151,0.316,0.3173,0.3251,0.3269,0.3069,0.3069,0.3069,0,0,0.3,0.2994,0.299,0.299,0.2997,0.3018,0.2998,0.3016,0.3043,0.3013,0.3047,0.3057,0.3068,0.3115,0.3132,0.3109,0.3234,0.3165,0.3172,0.3181,0.3257,0.3277,0.3294,0.3072,0.3072,0.3071,0,0,0.3015,0.3001,0.3002,0.3016,0.303,0.304,0.3045,0.3057,0.307,0.3099,0.3101,0.3138,0.3153,0.319,0.3205,0.3276,0.3285,0.3281,0.3341,0.3417,0.3434,0.345,0.3524,0.3545,0.3284,0.3284,0.3284,0,0.3022,0.3018,0.3012,0.3028,0.3045,0.3051,0.3074,0.3097,0.3116,0.3141,0.3121,0.3196,0.3199,0.3283,0.3311,0.3302,0.3341,0.3294,0.3431,0.3447,0.3461,0.3534,0.3556,0.3289,0.3288,0.3288,0.3287,0,0.304,0.3045,0.3054,0.3071,0.3095,0.3118,0.3148,0.3179,0.3191,0.3215,0.329,0.3307,0.3352,0.3371,0.3359,0.3472,0.3468,0.3437,0.3402,0.3487,0.3557,0.3579,0.3295,0.3294,0.3292,0.3291,0,0,0.303,0.3057,0.3059,0.3078,0.3118,0.314,0.32,0.3255,0.3301,0.334,0.3407,0.3469,0.348,0.35,0.3509,0.3574,0.3711,0.3551,0.3553,0.3627,0.389,0.3838,0.3857,0.3705,0.3709,0.3712,0.3905,0,0.3045,0.3074,0.309,0.314,0.3161,0.32,0.3255,0.3315,0.3361,0.343,0.3487,0.3546,0.3531,0.3557,0.3629,0.3689,0.377,0.3662,0.3795,0.3799,0.3744,0.3881,0.3661,0.3811,0.3926,0.393,0.3933,0,0.3053,0.3072,0.311,0.3171,0.3185,0.3222,0.3313,0.3364,0.347,0.3507,0.3591,0.3626,0.3746,0.3699,0.3881,0.3814,0.3865,0.3907,0.3915,0.3851,0.3788,0.3741,0.3846,0.3717,0.3966,0.3963,0.3961,0,0.3044,0.309,0.3119,0.3139,0.3209,0.3244,0.3288,0.3386,0.3456,0.3559,0.3634,0.3744,0.3839,0.3915,0.4011,0.3954,0.4206,0.4129,0.4142,0.4138,0.397,0.3945,0.3963,0.4266,0.4265,0.4265,0.4264,0,0.3052,0.3079,0.3113,0.3133,0.3193,0.3236,0.3319,0.3381,0.3495,0.3599,0.3672,0.3792,0.3902,0.4048,0.4079,0.4207,0.4271,0.4196,0.42,0.3993,0.3969,0.3859,0.3808,0.4272,0.427,0.4269,0.4268,0,0.3054,0.3067,0.3113,0.317,0.319,0.3236,0.3341,0.3417,0.3511,0.3656,0.37,0.3893,0.4068,0.4179,0.4338,0.4325,0.4282,0.4432,0.4186,0.4158,0.3981,0.3942,0.388,0.3768,0.4461,0.4461,0.4461,0,0.3059,0.3077,0.3136,0.3178,0.3207,0.327,0.3333,0.3416,0.35,0.3717,0.3802,0.4022,0.4151,0.4383,0.4386,0.4457,0.4325,0.4303,0.4139,0.3985,0.3947,0.3795,0.3693,0.3962,0.3958,0.3954,0.3952,0,0.309,0.3106,0.3151,0.3225,0.3283,0.3338,0.3418,0.348,0.3598,0.3708,0.3878,0.3989,0.4204,0.419,0.43,0.4296,0.4051,0.4237,0.4138,0.3627,0.3403,0.3289,0.3832,0.3922,0.3925,0.3928,0.3929,0.393,0.3119,0.3164,0.3221,0.329,0.3347,0.3388,0.3397,0.3487,0.3571,0.3674,0.3846,0.391,0.3978,0.4079,0.4066,0.3866,0.3888,0.3703,0.3699,0.3582,0.337,0.3862,0.391,0.3912,0.3915,0.3917,0.3919,0,0.3146,0.3201,0.3288,0.3336,0.3363,0.3387,0.3444,0.3412,0.3442,0.3553,0.3635,0.3622,0.3612,0.3616,0.348,0.3325,0.3156,0.3236,0.2946,0.2896,0.3386,0.3255,0.3087,0.3087,0.3087,0.3087,0.3087,0.3088,0.3167,0.3236,0.3278,0.3318,0.3337,0.3281,0.327,0.3235,0.3251,0.3184,0.312,0.3173,0.3227,0.3198,0.2987,0.2905,0.2671,0.2551,0.2605,0.2914,0.2954,0.2993,0.2857,0.2608,0.2607,0.1926,0.1921,0.1917]},{"header":{"parameterUnit":"m.s-1","parameterCategory":2,"la1":30.2991,"la2":30.254,"lo1":-89.0895,"lo2":-89.0444,"dy":0.0017,"dx":0.0017,"nx":28,"ny":28,"refTime":"2025-08-23T03:00:00:Z","depth":"0","parameterNumber":3,"parameterNumberName":"V-component_of_CURRENTS"},"data":[0,0,0,0,0,0,0,0,0,0,0,0,0,0,0,0,0,0,0,0,0,0,0,0,0,0,0,0,0,0,0,0,0,0,0,0,0,0,0,0,0,0,0,0,0,0,0,0,0,0,0,0,0,0,0,0,0,0,-0.0065,-0.0065,0,-0.0108,-0.0109,-0.011,-0.0146,-0.0146,-0.0147,-0.0147,-0.0222,-0.0224,-0.0225,0,0,0,0,0,0,0,0,0,0,0,0,0,-0.0072,-0.0072,-0.0064,-0.0065,-0.0065,-0.0108,-0.0109,-0.011,-0.0146,-0.0146,-0.0147,-0.0147,-0.0221,-0.0223,-0.0225,0,0,0,0,0,0,0,0,0,0,0,0,0,-0.0089,-0.0072,-0.0064,-0.0087,-0.0089,-0.0108,-0.0109,-0.011,-0.0146,-0.0146,-0.0147,-0.0147,-0.022,-0.0223,-0.0226,-0.0236,0,0,-0.0234,-0.0235,0,0,0,0,0,0,0,0,-0.0088,-0.0089,-0.0083,-0.0086,-0.0088,-0.012,-0.0139,-0.0153,-0.0146,-0.0127,-0.0147,-0.0147,-0.0189,-0.0195,-0.0204,-0.0239,-0.0243,-0.0234,-0.0236,-0.0237,-0.0238,0,0,0,0,0,0,0,-0.0087,-0.0088,-0.0084,-0.0084,-0.0087,-0.0115,-0.0118,-0.0142,-0.0158,-0.0128,-0.0131,-0.0132,-0.0191,-0.0202,-0.0206,-0.0244,-0.0234,-0.0237,-0.0238,-0.0239,-0.0315,-0.0315,0,0,0,0,0,0,-0.0074,-0.0086,-0.0082,-0.0085,-0.0087,-0.0115,-0.0118,-0.0111,-0.0157,-0.0163,-0.0132,-0.0134,-0.0197,-0.0203,-0.0209,-0.0232,-0.0237,-0.024,-0.0241,-0.0315,-0.0315,-0.0315,0,0,0,0,0,0,-0.0074,-0.0073,-0.0081,-0.0086,-0.0089,-0.0113,-0.0107,-0.0112,-0.012,-0.0159,-0.0166,-0.0134,-0.0197,-0.0205,-0.0227,-0.0235,-0.0241,-0.0243,-0.0314,-0.0315,-0.0315,-0.0274,0,0,0,0,0,0,-0.0074,-0.0072,-0.0066,-0.0084,-0.0088,-0.0086,-0.0106,-0.0112,-0.012,-0.0123,-0.0163,-0.0171,-0.0198,-0.0223,-0.023,-0.0239,-0.0245,-0.0314,-0.0314,-0.0315,-0.0274,-0.0273,-0.0271,0,0,0,0,0,-0.0074,-0.006,-0.0066,-0.0065,-0.0077,-0.0085,-0.0089,-0.011,-0.012,-0.012,-0.0147,-0.017,-0.0233,-0.0225,-0.0233,-0.0243,-0.0313,-0.0314,-0.0315,-0.0275,-0.0273,-0.0271,0,0,0,0,0,0,-0.0062,-0.0062,-0.0069,-0.0057,-0.0068,-0.009,-0.0092,-0.0105,-0.0127,-0.013,-0.0167,-0.0177,-0.0202,-0.0227,-0.0217,-0.0269,-0.028,-0.0282,-0.0247,-0.0245,-0.0244,-0.0212,-0.0248,0,0,0,0,0,-0.0054,-0.0044,-0.0054,-0.0046,-0.0048,-0.0069,-0.0075,-0.0087,-0.0107,-0.0117,-0.0145,-0.0179,-0.0213,-0.023,-0.026,-0.0282,-0.0278,-0.0297,-0.0296,-0.0294,-0.0275,-0.0281,-0.0277,-0.0318,-0.0318,-0.0318,0,0,-0.0048,-0.0047,-0.0042,-0.0043,-0.0054,-0.005,-0.0074,-0.0077,-0.0078,-0.0122,-0.0134,-0.0171,-0.0216,-0.0244,-0.0259,-0.0265,-0.0279,-0.0295,-0.0293,-0.0275,-0.0281,-0.0277,-0.0273,-0.0319,-0.0319,-0.0319,0,0,-0.0028,-0.0028,-0.0012,-0.0017,-0.0024,-0.0035,-0.0032,-0.005,-0.0062,-0.0076,-0.0114,-0.015,-0.0193,-0.0231,-0.0256,-0.0262,-0.0268,-0.0279,-0.0247,-0.0253,-0.0249,-0.0245,-0.0222,-0.0217,-0.0281,-0.0281,-0.028,0,-0.0022,0.0001,-0.0011,0.0001,0.0002,-0.0023,-0.0009,-0.0025,-0.0049,-0.0052,-0.0073,-0.0137,-0.0187,-0.0218,-0.0231,-0.0258,-0.0245,-0.0249,-0.0248,-0.0244,-0.0241,-0.0219,-0.0214,-0.0279,-0.0279,-0.0279,-0.0279,0,0.001,0.0025,0.0034,0.0043,0.004,0.0049,0.0031,0.0029,0.001,-0.0007,-0.0034,-0.0098,-0.0133,-0.0169,-0.0206,-0.0218,-0.0209,-0.0241,-0.0245,-0.0234,-0.0212,-0.0207,-0.0276,-0.0277,-0.0277,-0.0278,0,0,0.0032,0.0054,0.0057,0.0075,0.0066,0.0074,0.0074,0.0073,0.0092,0.0045,0.0061,-0.0032,-0.006,-0.009,-0.0146,-0.0165,-0.0152,-0.019,-0.0191,-0.0152,-0.013,-0.0124,-0.0118,-0.0176,-0.0175,-0.0174,-0.0118,0,0.0062,0.0104,0.0099,0.0134,0.0155,0.0138,0.0149,0.0142,0.0128,0.0138,0.0068,0.0051,-0.0032,-0.0048,-0.0081,-0.0128,-0.0138,-0.0162,-0.0159,-0.0159,-0.0143,-0.0113,-0.0101,-0.005,-0.0113,-0.0113,-0.0112,0,0.0093,0.0122,0.0164,0.0202,0.021,0.0223,0.0251,0.0254,0.025,0.0241,0.021,0.0165,0.0118,0.005,-0.001,-0.0014,-0.0065,-0.0104,-0.0103,-0.0105,-0.0143,-0.0077,-0.0039,-0.0185,-0.0105,-0.0105,-0.0106,0,0.0125,0.0166,0.0208,0.0216,0.025,0.027,0.0284,0.0289,0.0316,0.0308,0.0341,0.0269,0.0264,0.0179,0.0084,0.0043,0.0049,-0.0023,-0.0058,-0.0057,-0.005,-0.005,-0.014,-0.0052,-0.0052,-0.0052,-0.0052,0,0.016,0.0194,0.0233,0.0258,0.032,0.0317,0.0379,0.0384,0.0416,0.0482,0.0397,0.0453,0.03,0.0277,0.0156,0.0091,0.0104,-0.0027,-0.004,-0.0036,-0.0035,-0.0165,-0.0256,-0.005,-0.005,-0.0051,-0.0051,0,0.0185,0.0208,0.0265,0.0317,0.0338,0.0379,0.0449,0.0497,0.052,0.0611,0.0617,0.061,0.0592,0.0455,0.035,0.0213,0.0049,0.009,0.0122,0.0111,-0.0095,-0.0183,-0.0254,-0.0314,0.0052,0.0053,0.0053,0,0.0201,0.0232,0.0308,0.035,0.0377,0.0442,0.0494,0.0536,0.0603,0.0729,0.079,0.0809,0.0867,0.0724,0.0484,0.0306,0.013,0.016,0.0054,-0.0082,-0.0189,-0.0258,-0.0309,0.0087,0.0088,0.0088,0.0089,0,0.0232,0.0258,0.0306,0.0395,0.0458,0.0541,0.0627,0.0704,0.079,0.0919,0.1091,0.116,0.1045,0.0889,0.0616,0.0455,0.0053,0.0165,0.0009,-0.0171,-0.0235,-0.0306,0.004,0.0094,0.0093,0.0093,0.0093,0.0093,0.0253,0.0291,0.0355,0.0436,0.0519,0.0631,0.0728,0.0862,0.1032,0.1268,0.132,0.1505,0.1222,0.0872,0.0619,0.0135,0.0119,-0.0038,-0.0127,-0.0179,-0.0263,0.0111,0.0148,0.0148,0.0148,0.0148,0.0148,0,0.0285,0.0325,0.0394,0.0506,0.061,0.065,0.0815,0.0951,0.1201,0.1454,0.1659,0.1658,0.1301,0.0877,0.0226,-0.011,-0.0252,-0.0296,-0.0413,-0.045,-0.0122,-0.015,-0.0157,-0.0157,-0.0157,-0.0157,-0.0157,-0.0156,0.0305,0.0368,0.0398,0.0558,0.0652,0.0826,0.0936,0.1162,0.1377,0.1716,0.1887,0.1977,0.1644,0.0513,-0.0244,-0.0415,-0.0663,-0.0699,-0.0816,-0.063,-0.0614,-0.0599,-0.0648,-0.0759,-0.076,-0.1106,-0.111,-0.1113]}],[{"header":{"parameterUnit":"m.s-1","parameterCategory":2,"la1":30.2991,"la2":30.254,"lo1":-89.0895,"lo2":-89.0444,"dy":0.0017,"dx":0.0017,"nx":28,"ny":28,"refTime":"2025-08-23T03:00:00:Z","depth":"2","parameterNumber":2,"parameterNumberName":"U-component_of_CURRENTS"},"data":[0,0,0,0,0,0,0,0,0,0,0,0,0,0,0,0,0,0,0,0,0,0,0,0,0,0,0,0,0,0,0,0,0,0,0,0,0,0,0,0,0,0,0,0,0,0,0,0,0,0,0,0,0,0,0,0,0,0,0.2369,0.2369,0,0.2381,0.2381,0.2381,0.2375,0.2375,0.2375,0.2375,0.2401,0.2402,0.2403,0,0,0,0,0,0,0,0,0,0,0,0,0,0.2334,0.2334,0.2369,0.2369,0.2369,0.2381,0.2381,0.2381,0.2375,0.2375,0.2375,0.2375,0.2401,0.2402,0.2403,0,0,0,0,0,0,0,0,0,0,0,0,0,0.2346,0.2334,0.2369,0.2369,0.2369,0.2381,0.2381,0.2381,0.2375,0.2375,0.2375,0.2375,0.24,0.2401,0.2403,0.2416,0,0,0.2407,0.2407,0,0,0,0,0,0,0,0,0.2346,0.2347,0.2369,0.2369,0.2369,0.2377,0.2378,0.2394,0.2375,0.2372,0.2375,0.2375,0.2395,0.2397,0.2398,0.2417,0.2418,0.2407,0.2408,0.2408,0.2408,0,0,0,0,0,0,0,0.2345,0.2347,0.2372,0.2369,0.2369,0.2366,0.2367,0.2381,0.2384,0.2372,0.2372,0.2375,0.2395,0.2397,0.2398,0.2419,0.2407,0.2408,0.2409,0.2409,0.2499,0.2501,0,0,0,0,0,0,0.2347,0.2346,0.2372,0.2373,0.2358,0.2367,0.2368,0.2374,0.2384,0.2385,0.2376,0.2375,0.2394,0.2397,0.2399,0.2456,0.2408,0.2409,0.241,0.2497,0.2499,0.2501,0,0,0,0,0,0,0.2346,0.2349,0.2371,0.236,0.2363,0.2368,0.2374,0.2374,0.2385,0.2387,0.2388,0.2387,0.2394,0.2398,0.2422,0.2456,0.241,0.2411,0.2496,0.2498,0.25,0.2544,0,0,0,0,0,0,0.2345,0.2349,0.2358,0.2361,0.2364,0.2388,0.2375,0.2375,0.2387,0.2387,0.2397,0.2398,0.2394,0.242,0.2423,0.2457,0.2412,0.2493,0.2497,0.25,0.2541,0.2548,0.2554,0,0,0,0,0,0.2344,0.2353,0.2359,0.2362,0.2376,0.2389,0.2391,0.2392,0.2388,0.2399,0.2404,0.2398,0.2442,0.2422,0.2425,0.246,0.2492,0.2496,0.2499,0.2538,0.2547,0.2554,0,0,0,0,0,0,0.2348,0.2354,0.236,0.2373,0.2387,0.2389,0.2397,0.24,0.2412,0.2414,0.2412,0.2414,0.2455,0.245,0.2428,0.2497,0.2469,0.2474,0.2498,0.2506,0.2512,0.2541,0.2413,0,0,0,0,0,0.2353,0.236,0.2372,0.2386,0.2392,0.2398,0.2405,0.241,0.2418,0.2423,0.2433,0.2448,0.2472,0.2481,0.2501,0.2529,0.2558,0.2558,0.2564,0.257,0.2597,0.2665,0.268,0.2513,0.2513,0.2513,0,0,0.2353,0.2365,0.2365,0.2387,0.2395,0.2414,0.2402,0.2418,0.2445,0.2425,0.2465,0.2475,0.2487,0.2525,0.2543,0.2523,0.2631,0.2574,0.2579,0.2604,0.267,0.2687,0.2701,0.2516,0.2515,0.2515,0,0,0.2366,0.2374,0.2386,0.24,0.2422,0.2429,0.2438,0.2454,0.2472,0.2507,0.2509,0.2538,0.2565,0.2585,0.2597,0.2653,0.2669,0.266,0.271,0.2775,0.279,0.2803,0.2853,0.287,0.2656,0.2656,0.2656,0,0.2371,0.239,0.2394,0.2417,0.2432,0.244,0.2463,0.2487,0.2513,0.254,0.2529,0.2601,0.26,0.2662,0.2679,0.267,0.2708,0.2674,0.2785,0.2798,0.2811,0.286,0.2878,0.2659,0.2658,0.2658,0.2658,0,0.2393,0.2412,0.2422,0.2453,0.2474,0.2491,0.2524,0.2554,0.2575,0.2603,0.2676,0.2686,0.2733,0.2733,0.2722,0.2815,0.2812,0.279,0.2764,0.2831,0.2877,0.2896,0.2662,0.2662,0.2661,0.266,0,0,0.2379,0.2427,0.2426,0.2451,0.2492,0.2508,0.2565,0.2618,0.2667,0.2706,0.278,0.2818,0.2838,0.2856,0.2854,0.29,0.3004,0.2888,0.289,0.2937,0.3155,0.304,0.3049,0.3006,0.301,0.3013,0.3148,0,0.2393,0.2434,0.246,0.2503,0.2525,0.2561,0.2618,0.2672,0.2722,0.2796,0.2839,0.2907,0.2883,0.2913,0.2963,0.2997,0.3058,0.2971,0.3085,0.3089,0.2978,0.3069,0.2826,0.2917,0.3166,0.3169,0.3172,0,0.2398,0.2428,0.247,0.2537,0.2552,0.2589,0.2674,0.2732,0.2837,0.2881,0.2962,0.3002,0.3091,0.3055,0.3181,0.313,0.3165,0.3182,0.3187,0.3083,0.3009,0.2893,0.2942,0.3203,0.32,0.3198,0.3196,0,0.2368,0.243,0.2465,0.2483,0.2564,0.2605,0.2659,0.2759,0.2823,0.2951,0.301,0.3118,0.3187,0.3253,0.3298,0.3257,0.3431,0.3368,0.3305,0.3297,0.3115,0.3084,0.3484,0.3484,0.3484,0.3483,0.3483,0,0.2359,0.2381,0.2457,0.2469,0.254,0.2605,0.2695,0.2765,0.2882,0.297,0.3065,0.3146,0.3247,0.3344,0.3364,0.3401,0.3493,0.335,0.3338,0.312,0.3089,0.335,0.3333,0.3488,0.3487,0.3486,0.3485,0,0.2317,0.2356,0.2406,0.2492,0.2526,0.2582,0.2703,0.2764,0.2886,0.3007,0.3056,0.3206,0.3318,0.3403,0.3518,0.3477,0.3518,0.3513,0.3244,0.3196,0.3323,0.3307,0.3448,0.3445,0.3443,0.3441,0.3439,0,0.2294,0.2325,0.2412,0.245,0.2492,0.2581,0.2638,0.2754,0.2821,0.3026,0.3076,0.324,0.331,0.3436,0.3418,0.345,0.3516,0.3225,0.3085,0.3352,0.3327,0.3314,0.3301,0.2869,0.2863,0.2858,0.2854,0,0.2271,0.231,0.2334,0.2404,0.2462,0.2543,0.2634,0.2675,0.2824,0.2905,0.3019,0.3095,0.3237,0.3148,0.3206,0.3178,0.3188,0.312,0.3517,0.2894,0.2812,0.2785,0.279,0.281,0.2814,0.2817,0.282,0.2822,0.2252,0.2261,0.2288,0.2357,0.2435,0.2495,0.2484,0.2577,0.2632,0.272,0.2852,0.2875,0.2946,0.2873,0.2805,0.2755,0.2953,0.2815,0.2829,0.2849,0.2736,0.2652,0.26,0.2603,0.2605,0.2608,0.261,0,0.222,0.2231,0.2255,0.2308,0.2349,0.2428,0.247,0.2402,0.2408,0.253,0.2571,0.2382,0.2352,0.2429,0.2288,0.2276,0.2241,0.2176,0.2119,0.2166,0.2208,0.206,0.1746,0.1742,0.1739,0.1737,0,0,0.2205,0.2174,0.2166,0.2199,0.2267,0.2222,0.2213,0.2146,0.215,0.2092,0.2101,0.2254,0.2371,0.2026,0.1987,0.1846,0.1983,0.177,0.2475,0.2457,0.2494,0.26,0.2429,0,0,0,0,0]},{"header":{"parameterUnit":"m.s-1","parameterCategory":2,"la1":30.2991,"la2":30.254,"lo1":-89.0895,"lo2":-89.0444,"dy":0.0017,"dx":0.0017,"nx":28,"ny":28,"refTime":"2025-08-23T03:00:00:Z","depth":"2","parameterNumber":3,"parameterNumberName":"V-component_of_CURRENTS"},"data":[0,0,0,0,0,0,0,0,0,0,0,0,0,0,0,0,0,0,0,0,0,0,0,0,0,0,0,0,0,0,0,0,0,0,0,0,0,0,0,0,0,0,0,0,0,0,0,0,0,0,0,0,0,0,0,0,0,0,0.0151,0.015,0,0.0108,0.0107,0.0106,0.0076,0.0076,0.0076,0.0076,0.0017,0.0015,0.0014,0,0,0,0,0,0,0,0,0,0,0,0,0,0.0162,0.0163,0.0151,0.015,0.015,0.0108,0.0107,0.0106,0.0076,0.0076,0.0076,0.0075,0.0017,0.0015,0.0014,0,0,0,0,0,0,0,0,0,0,0,0,0,0.0141,0.0163,0.0151,0.013,0.0128,0.0108,0.0107,0.0106,0.0076,0.0076,0.0076,0.0075,0.0018,0.0016,0.0014,0.0005,0,0,0.0007,0.0006,0,0,0,0,0,0,0,0,0.0143,0.0141,0.0134,0.0132,0.0129,0.0098,0.009,0.0072,0.0076,0.0095,0.0076,0.0075,0.0043,0.0039,0.003,0.0002,-0.0001,0.0007,0.0005,0.0005,0.0004,0,0,0,0,0,0,0,0.0144,0.0142,0.0132,0.0133,0.0131,0.0108,0.0105,0.0086,0.007,0.0093,0.0091,0.0088,0.0042,0.0032,0.0028,-0.0002,0.0007,0.0005,0.0004,0.0003,-0.0043,-0.0043,0,0,0,0,0,0,0.0154,0.0144,0.0134,0.0131,0.0137,0.0109,0.0105,0.0107,0.007,0.0065,0.0088,0.0087,0.0036,0.0031,0.0026,0.0027,0.0005,0.0003,0.0001,-0.0043,-0.0043,-0.0043,0,0,0,0,0,0,0.0155,0.0154,0.0136,0.0137,0.0133,0.0109,0.0111,0.0107,0.0099,0.0067,0.0061,0.0086,0.0036,0.0029,0.0015,0.0024,0.0002,-0.0,-0.0043,-0.0043,-0.0043,0.0021,0,0,0,0,0,0,0.0155,0.0155,0.0157,0.0138,0.0134,0.0131,0.0111,0.0106,0.0098,0.0095,0.0063,0.0057,0.0035,0.0019,0.0013,0.0021,-0.0002,-0.0043,-0.0043,-0.0043,0.0019,0.0023,0.0027,0,0,0,0,0,0.0156,0.0167,0.0158,0.0156,0.0139,0.0131,0.0127,0.0108,0.0098,0.0099,0.0077,0.0058,0.0015,0.0017,0.0011,0.0018,-0.0043,-0.0043,-0.0043,0.0017,0.0022,0.0027,0,0,0,0,0,0,0.0172,0.0164,0.0154,0.0161,0.0149,0.0127,0.0126,0.0112,0.0095,0.0093,0.0062,0.0055,0.0043,0.0021,0.0024,0.0004,-0.0018,-0.0019,0.0029,0.0034,0.0038,0.0053,-0.0004,0,0,0,0,0,0.0178,0.0183,0.0169,0.0173,0.017,0.0148,0.0141,0.0129,0.0113,0.0105,0.0082,0.0057,0.0038,0.0029,0.0006,-0.0001,-0.002,-0.0002,0.0002,0.0006,0.0012,-0.0006,-0.0002,-0.0042,-0.0042,-0.0042,0,0,0.0185,0.018,0.0183,0.0176,0.0165,0.0171,0.0143,0.0139,0.0144,0.0101,0.0099,0.007,0.0038,0.003,0.0022,0.0014,0.0006,0.0006,0.001,0.0014,-0.0005,-0.0001,0.0003,-0.0042,-0.0042,-0.0042,0,0,0.0206,0.0199,0.0212,0.0208,0.0198,0.0187,0.0189,0.017,0.0162,0.0153,0.0125,0.0105,0.0074,0.0057,0.0044,0.0056,0.0027,0.0045,0.0083,0.0065,0.0069,0.0072,0.0055,0.0056,0.005,0.005,0.005,0,0.0214,0.0231,0.0213,0.0226,0.0229,0.0199,0.0217,0.0205,0.0183,0.0185,0.016,0.012,0.0088,0.0087,0.0087,0.0067,0.0052,0.007,0.0073,0.0075,0.0077,0.0059,0.0059,0.0053,0.0053,0.0053,0.0052,0,0.0247,0.026,0.0268,0.0277,0.0276,0.0287,0.0272,0.0273,0.0255,0.0241,0.0228,0.0181,0.016,0.0143,0.0116,0.0117,0.01,0.008,0.0065,0.0085,0.0065,0.0064,0.0058,0.0057,0.0056,0.0055,0,0,0.0268,0.0289,0.0293,0.0313,0.0307,0.0317,0.0327,0.0334,0.0357,0.0313,0.0334,0.0277,0.0247,0.0229,0.019,0.017,0.0161,0.0133,0.0131,0.0127,0.0126,0.0093,0.0088,0.0144,0.0144,0.0144,0.0108,0,0.03,0.0345,0.034,0.0383,0.0409,0.0394,0.0413,0.0413,0.0403,0.0415,0.0361,0.0357,0.0282,0.0278,0.0241,0.019,0.0161,0.0173,0.0099,0.0097,0.0073,0.0087,0.0107,0.0074,0.0107,0.0107,0.0106,0,0.0334,0.0365,0.0414,0.0457,0.0466,0.0484,0.0522,0.0535,0.0537,0.0532,0.0506,0.0464,0.0426,0.036,0.0268,0.0281,0.0205,0.0154,0.0151,0.0098,0.0061,0.0057,0.0071,0.0104,0.0105,0.0105,0.0105,0,0.037,0.0417,0.0462,0.0475,0.0514,0.0537,0.0558,0.0572,0.0611,0.0611,0.0643,0.0566,0.0556,0.0446,0.0319,0.0299,0.0222,0.0183,0.0079,0.0075,0.0067,0.0062,0.0114,0.0114,0.0114,0.0114,0.0114,0,0.0412,0.045,0.0488,0.0517,0.0585,0.0588,0.066,0.0672,0.0713,0.0783,0.0707,0.0743,0.0579,0.0509,0.0367,0.0226,0.0254,0.0089,0.0065,0.0088,0.0086,0.0089,0.0086,0.0112,0.0113,0.0113,0.0113,0,0.0448,0.0466,0.0531,0.0585,0.0604,0.0656,0.0739,0.0806,0.0826,0.0919,0.093,0.0888,0.0795,0.0622,0.0458,0.0309,0.0166,0.0104,0.0139,0.0119,0.0016,0.0017,-0.0014,-0.0016,-0.0017,-0.0018,-0.0019,0,0.0473,0.0508,0.0585,0.0637,0.0665,0.0743,0.0813,0.0857,0.0937,0.1017,0.1078,0.1017,0.0988,0.0727,0.0458,0.0207,0.017,0.0054,0.0005,0.0024,0.0003,0.0007,0.0009,0.002,0.002,0.002,0.0019,0,0.0531,0.0553,0.0618,0.0726,0.0805,0.0906,0.1004,0.1081,0.1157,0.1227,0.1309,0.129,0.1046,0.0791,0.0437,0.0261,0.0089,0.0036,0.0065,0.0044,0.0052,0.0033,0.0036,0.0016,0.0016,0.0016,0.0017,0.0017,0.0581,0.0642,0.0731,0.0835,0.0922,0.1058,0.1174,0.1274,0.1401,0.1498,0.1464,0.1423,0.114,0.0677,0.0383,0.0064,0.0071,-0.005,-0.0047,-0.0044,-0.0039,-0.0034,-0.0085,-0.0085,-0.0085,-0.0086,-0.0086,0,0.0652,0.0726,0.0835,0.0967,0.1076,0.1112,0.1298,0.1404,0.1548,0.1583,0.1609,0.1328,0.1046,0.072,0.0251,-0.003,-0.0049,-0.0123,-0.0078,-0.0073,-0.0069,-0.0064,-0.0118,-0.0119,-0.012,-0.012,0,0,0.0693,0.0813,0.0874,0.1069,0.1158,0.134,0.1455,0.1577,0.1641,0.1653,0.1598,0.1511,0.113,0.0786,0.0413,0.015,0.0098,0.009,0.0145,0.0247,0.0254,-0.0,0.0016,0,0,0,0,0]}],[{"header":{"parameterUnit":"m.s-1","parameterCategory":2,"la1":30.2991,"la2":30.254,"lo1":-89.0895,"lo2":-89.0444,"dy":0.0017,"dx":0.0017,"nx":28,"ny":28,"refTime":"2025-08-23T03:00:00:Z","depth":"4","parameterNumber":2,"parameterNumberName":"U-component_of_CURRENTS"},"data":[0,0,0,0,0,0,0,0,0,0,0,0,0,0,0,0,0,0,0,0,0,0,0,0,0,0,0,0,0,0,0,0,0,0,0,0,0,0,0,0,0,0,0,0,0,0,0,0,0,0,0,0,0,0,0,0,0,0,0.1418,0.1419,0,0.1456,0.1457,0.1457,0.1492,0.1493,0.1494,0.1494,0.1544,0.1545,0.1546,0,0,0,0,0,0,0,0,0,0,0,0,0,0.1348,0.1349,0.1418,0.1419,0.1419,0.1456,0.1457,0.1457,0.1492,0.1493,0.1494,0.1495,0.1544,0.1545,0.1546,0,0,0,0,0,0,0,0,0,0,0,0,0,0.1379,0.1349,0.1418,0.1444,0.1447,0.1456,0.1457,0.1457,0.1492,0.1493,0.1494,0.1495,0.1544,0.1545,0.1546,0.153,0,0,0.1549,0.1549,0,0,0,0,0,0,0,0,0.1377,0.1381,0.1439,0.1442,0.1445,0.1474,0.1451,0.1483,0.1492,0.1471,0.1495,0.1496,0.1523,0.1526,0.1526,0.1533,0.1535,0.1549,0.155,0.155,0.155,0,0,0,0,0,0,0,0.1375,0.1379,0.143,0.144,0.1444,0.1445,0.145,0.1456,0.1488,0.1473,0.1477,0.1486,0.1525,0.1525,0.1528,0.1536,0.1549,0.155,0.1551,0.1551,0.1612,0.1613,0,0,0,0,0,0,0.1377,0.1377,0.1429,0.1431,0.1417,0.1445,0.1451,0.1461,0.1488,0.1494,0.1485,0.1487,0.1523,0.1526,0.153,0.1581,0.155,0.1551,0.1552,0.1611,0.1612,0.1613,0,0,0,0,0,0,0.1375,0.1381,0.1427,0.1408,0.1414,0.1446,0.1456,0.1461,0.1495,0.1497,0.1503,0.1518,0.1524,0.1528,0.156,0.1581,0.1551,0.1552,0.161,0.1611,0.1613,0.164,0,0,0,0,0,0,0.1373,0.138,0.1401,0.1408,0.1416,0.1448,0.1455,0.1461,0.1498,0.1503,0.1527,0.1531,0.1525,0.1558,0.1561,0.1582,0.1553,0.1608,0.161,0.1612,0.1638,0.1642,0.1646,0,0,0,0,0,0.137,0.1388,0.1402,0.1409,0.1439,0.1449,0.1453,0.1476,0.1499,0.1512,0.1533,0.1532,0.1573,0.156,0.1563,0.1584,0.1607,0.161,0.1612,0.1636,0.1641,0.1646,0,0,0,0,0,0,0.1366,0.1394,0.1409,0.1435,0.145,0.1457,0.1481,0.1495,0.1521,0.154,0.1542,0.1547,0.1583,0.1581,0.1567,0.1608,0.1591,0.1594,0.1608,0.1613,0.1618,0.1638,0.1554,0,0,0,0,0,0.1375,0.1401,0.1418,0.1441,0.1456,0.1475,0.1491,0.1505,0.1524,0.1538,0.1554,0.1574,0.1588,0.1601,0.1611,0.1631,0.165,0.1649,0.1653,0.1656,0.1676,0.1717,0.1726,0.1621,0.1621,0.1621,0,0,0.1378,0.1401,0.1415,0.1444,0.1464,0.1478,0.1488,0.1519,0.1536,0.1539,0.158,0.1592,0.1598,0.1621,0.1637,0.1626,0.1695,0.1659,0.1662,0.168,0.172,0.1731,0.174,0.1622,0.1622,0.1622,0,0,0.1387,0.1422,0.1444,0.1459,0.1496,0.1504,0.1522,0.1546,0.1569,0.1602,0.1608,0.1639,0.1661,0.1665,0.167,0.1706,0.1718,0.1711,0.1747,0.1786,0.1795,0.1804,0.1837,0.1848,0.1711,0.1711,0.1711,0,0.1395,0.142,0.1449,0.1469,0.1488,0.152,0.1537,0.1558,0.1589,0.1616,0.1625,0.1679,0.1682,0.171,0.1723,0.1716,0.1742,0.1724,0.1792,0.1801,0.1809,0.1841,0.1853,0.1712,0.1712,0.1712,0.1712,0,0.1403,0.1435,0.1451,0.1488,0.1509,0.1532,0.156,0.1594,0.1634,0.1658,0.1716,0.1725,0.1762,0.176,0.1755,0.1809,0.181,0.1793,0.1779,0.1821,0.1852,0.1864,0.1715,0.1714,0.1714,0.1713,0,0,0.1389,0.1446,0.1455,0.1473,0.1524,0.1533,0.158,0.1623,0.1667,0.1711,0.1766,0.1794,0.1826,0.1835,0.1832,0.1862,0.1933,0.186,0.1861,0.1893,0.2029,0.19,0.19,0.1932,0.1935,0.1937,0.2025,0,0.1391,0.1425,0.1456,0.1487,0.1506,0.1553,0.1591,0.1639,0.1694,0.1754,0.1796,0.185,0.1845,0.1874,0.1907,0.1931,0.1967,0.1911,0.1984,0.1986,0.1866,0.191,0.1944,0.2034,0.2037,0.2039,0.204,0,0.1382,0.141,0.1444,0.1494,0.1509,0.1538,0.1613,0.1651,0.1745,0.1796,0.187,0.191,0.1977,0.196,0.2047,0.2017,0.2038,0.2048,0.2051,0.1933,0.1879,0.1985,0.2062,0.206,0.2059,0.2057,0.2056,0,0.1344,0.1396,0.1425,0.144,0.1505,0.1541,0.1587,0.1676,0.173,0.1839,0.1901,0.198,0.2041,0.2085,0.2128,0.2103,0.2214,0.2173,0.2076,0.2068,0.2145,0.2136,0.2239,0.2239,0.2239,0.2238,0.2238,0,0.1317,0.1338,0.1415,0.1427,0.1471,0.153,0.1601,0.1661,0.1771,0.1839,0.1932,0.1991,0.2082,0.2151,0.2166,0.2166,0.2254,0.21,0.2086,0.2153,0.2144,0.2154,0.2143,0.2242,0.2241,0.224,0.224,0,0.1255,0.1311,0.1337,0.1418,0.1456,0.1483,0.1605,0.1649,0.1774,0.1867,0.1912,0.204,0.2127,0.2196,0.2272,0.2207,0.2218,0.2194,0.2284,0.227,0.2035,0.2025,0.2087,0.2084,0.208,0.2078,0.2076,0,0.1219,0.1236,0.1322,0.1337,0.1377,0.1449,0.1503,0.1639,0.1696,0.1874,0.1904,0.2044,0.2111,0.2124,0.2197,0.2225,0.2194,0.2177,0.2083,0.2042,0.2023,0.2017,0.2011,0.207,0.207,0.2069,0.2068,0,0.1141,0.1187,0.1206,0.1259,0.1309,0.1347,0.1441,0.1488,0.1642,0.1786,0.1858,0.1905,0.1998,0.2048,0.2095,0.2102,0.217,0.2143,0.2149,0.206,0.2022,0.2005,0.2003,0.2057,0.2059,0.206,0.206,0,0.1084,0.1069,0.1117,0.1146,0.12,0.1212,0.128,0.136,0.145,0.1673,0.1696,0.1841,0.1981,0.1986,0.2025,0.2031,0.1986,0.1893,0.191,0.1923,0.1826,0.1751,0.1704,0,0,0,0,0,0.1014,0.099,0.1002,0.1016,0.1064,0.1107,0.1219,0.1296,0.1489,0.15,0.1599,0.168,0.1745,0.182,0.1793,0.1935,0.1979,0.189,0.1876,0.1996,0.2009,0.1907,0,0,0,0,0,0,0.0964,0.0964,0.0961,0.0912,0.0911,0.0951,0.1019,0.1137,0.1165,0.1369,0.1423,0.1569,0.1667,0.1754,0.1761,0.1783,0.1734,0.1997,0.1992,0.1989,0.2,0.2011,0.191,0,0,0,0,0]},{"header":{"parameterUnit":"m.s-1","parameterCategory":2,"la1":30.2991,"la2":30.254,"lo1":-89.0895,"lo2":-89.0444,"dy":0.0017,"dx":0.0017,"nx":28,"ny":28,"refTime":"2025-08-23T03:00:00:Z","depth":"4","parameterNumber":3,"parameterNumberName":"V-component_of_CURRENTS"},"data":[0,0,0,0,0,0,0,0,0,0,0,0,0,0,0,0,0,0,0,0,0,0,0,0,0,0,0,0,0,0,0,0,0,0,0,0,0,0,0,0,0,0,0,0,0,0,0,0,0,0,0,0,0,0,0,0,0,0,0.0155,0.0155,0,0.0128,0.0128,0.0127,0.0112,0.0112,0.0112,0.0112,0.0083,0.0082,0.0082,0,0,0,0,0,0,0,0,0,0,0,0,0,0.016,0.016,0.0155,0.0155,0.0154,0.0128,0.0128,0.0127,0.0112,0.0112,0.0112,0.0112,0.0083,0.0082,0.0081,0,0,0,0,0,0,0,0,0,0,0,0,0,0.0148,0.016,0.0155,0.0144,0.0143,0.0128,0.0128,0.0127,0.0112,0.0112,0.0112,0.0112,0.0084,0.0082,0.0081,0.0074,0,0,0.0078,0.0077,0,0,0,0,0,0,0,0,0.0148,0.0147,0.0146,0.0145,0.0143,0.0124,0.0119,0.0109,0.0112,0.0123,0.0112,0.0112,0.0097,0.0095,0.0089,0.0073,0.0071,0.0078,0.0077,0.0076,0.0076,0,0,0,0,0,0,0,0.0149,0.0148,0.0144,0.0146,0.0144,0.0129,0.0128,0.0117,0.011,0.0122,0.0121,0.0119,0.0096,0.009,0.0088,0.0071,0.0078,0.0077,0.0076,0.0075,0.0063,0.0063,0,0,0,0,0,0,0.0155,0.0149,0.0145,0.0143,0.0147,0.0129,0.0127,0.013,0.011,0.0107,0.0119,0.0119,0.0092,0.0089,0.0087,0.0104,0.0076,0.0075,0.0075,0.0062,0.0063,0.0063,0,0,0,0,0,0,0.0156,0.0156,0.0146,0.0146,0.0143,0.0129,0.0132,0.0129,0.0127,0.0108,0.0105,0.0121,0.0092,0.0089,0.0086,0.0102,0.0075,0.0074,0.0062,0.0063,0.0063,0.012,0,0,0,0,0,0,0.0156,0.0156,0.016,0.0146,0.0144,0.0145,0.0132,0.0129,0.0126,0.0125,0.0108,0.0105,0.0092,0.0088,0.0084,0.0099,0.0073,0.0062,0.0062,0.0063,0.0118,0.0123,0.0127,0,0,0,0,0,0.0156,0.0165,0.016,0.0159,0.015,0.0145,0.0143,0.0132,0.0126,0.0129,0.0119,0.0106,0.009,0.0087,0.0083,0.0098,0.0061,0.0062,0.0063,0.0116,0.0122,0.0127,0,0,0,0,0,0,0.017,0.0164,0.0158,0.0165,0.0158,0.0143,0.0145,0.0136,0.013,0.0129,0.011,0.0107,0.0111,0.0094,0.0091,0.0095,0.0073,0.0073,0.0115,0.012,0.0124,0.0129,0.0072,0,0,0,0,0,0.0175,0.018,0.017,0.0175,0.0174,0.0159,0.0156,0.0149,0.0141,0.0138,0.0126,0.0114,0.011,0.0107,0.0097,0.0099,0.0068,0.0105,0.0109,0.0113,0.0114,0.0079,0.008,0.0066,0.0066,0.0066,0,0,0.0181,0.0178,0.0181,0.0178,0.0171,0.0179,0.0158,0.0157,0.0167,0.0135,0.0145,0.013,0.0113,0.0119,0.0118,0.0107,0.0101,0.0114,0.0118,0.0116,0.008,0.0081,0.0082,0.0067,0.0066,0.0066,0,0,0.0198,0.0194,0.0205,0.0205,0.0199,0.0193,0.0196,0.0185,0.0185,0.0187,0.0172,0.0165,0.0154,0.0148,0.0144,0.0164,0.0126,0.0161,0.0189,0.0156,0.0157,0.0157,0.0119,0.0116,0.0164,0.0164,0.0164,0,0.0205,0.022,0.0207,0.0219,0.0226,0.0204,0.0222,0.0218,0.0209,0.0213,0.0198,0.0183,0.0169,0.0178,0.0186,0.0176,0.0145,0.0174,0.0162,0.0161,0.0161,0.0122,0.0118,0.0167,0.0166,0.0166,0.0166,0,0.0232,0.0246,0.0253,0.0264,0.0268,0.0279,0.0275,0.028,0.0273,0.0264,0.0266,0.024,0.0232,0.0227,0.0214,0.0211,0.0187,0.0172,0.015,0.0166,0.0124,0.0118,0.0171,0.017,0.0169,0.0168,0,0,0.0245,0.0268,0.0272,0.0292,0.0295,0.0306,0.0324,0.0336,0.0353,0.0329,0.0341,0.0326,0.0301,0.0293,0.0272,0.0242,0.0213,0.0209,0.0205,0.0175,0.0132,0.0114,0.0106,0.0194,0.0194,0.0193,0.0104,0,0.0271,0.031,0.0313,0.0354,0.0377,0.0373,0.0396,0.0402,0.0397,0.0401,0.0366,0.0367,0.0331,0.0329,0.0293,0.0235,0.02,0.0238,0.0118,0.0114,0.0099,0.01,0.0191,0.01,0.0098,0.0097,0.0097,0,0.0296,0.0323,0.037,0.0413,0.0423,0.0445,0.048,0.0498,0.0493,0.0489,0.0469,0.0435,0.0399,0.0361,0.026,0.0284,0.0214,0.0159,0.0154,0.0114,0.0086,0.0079,0.0086,0.0087,0.0087,0.0088,0.0089,0,0.0318,0.0364,0.0407,0.0421,0.0462,0.0489,0.0512,0.0525,0.0555,0.0544,0.055,0.049,0.0466,0.0369,0.0255,0.0256,0.0129,0.0116,0.0031,0.0028,0.0046,0.0046,0.0038,0.0038,0.0038,0.0039,0.0039,0,0.0345,0.0382,0.0426,0.0452,0.0515,0.0527,0.0588,0.0601,0.0623,0.0656,0.0598,0.0595,0.0466,0.0378,0.0266,0.0129,0.0134,0.0032,0.0005,0.0072,0.0076,0.0041,0.0043,0.0035,0.0036,0.0037,0.0037,0,0.0364,0.0388,0.0447,0.0505,0.0529,0.0576,0.0651,0.0698,0.0703,0.0741,0.0741,0.0672,0.0555,0.0414,0.0251,0.0153,0.0019,-0.0032,0.0047,0.0026,-0.0064,-0.0058,-0.0134,-0.0136,-0.0137,-0.0138,-0.0139,0,0.0378,0.0409,0.049,0.0538,0.057,0.0642,0.0702,0.0739,0.0787,0.0786,0.0804,0.0707,0.0639,0.0397,0.024,0.0017,-0.0013,-0.0088,-0.0075,-0.0062,-0.0081,-0.0074,-0.0067,-0.014,-0.0141,-0.0141,-0.0141,0,0.0408,0.0435,0.0487,0.0585,0.0659,0.0743,0.0821,0.0858,0.0895,0.0898,0.0856,0.0729,0.0592,0.0399,0.0225,0.0066,-0.0043,-0.0101,-0.01,-0.0088,-0.0071,-0.0087,-0.0079,-0.0145,-0.0145,-0.0144,-0.0144,0,0.0432,0.0473,0.0543,0.0631,0.0725,0.0813,0.0854,0.0902,0.0939,0.093,0.0909,0.0756,0.0668,0.0423,0.0261,0.0102,0.0061,0.0007,0.0002,0.0005,0.0069,0.0113,0.0069,0,0,0,0,0,0.0451,0.0501,0.0587,0.0681,0.0775,0.0833,0.0922,0.0954,0.0979,0.0962,0.0937,0.0808,0.0562,0.0453,0.0292,0.0233,0.003,0.0037,-0.0035,-0.0167,-0.0163,-0.0113,0,0,0,0,0,0,0.0466,0.0539,0.0586,0.0705,0.0778,0.0886,0.0947,0.097,0.0956,0.0947,0.0823,0.0755,0.0521,0.0654,0.0284,0.0235,0.0164,-0.0076,-0.008,-0.017,-0.0166,-0.0162,-0.011,0,0,0,0,0]}]]